Overview Statistics Trail Chart Weather Telemetry Raw packets
 

This is the latest recevied weather packets stored in our database for station/object DL0BB-10. If no packets are shown the sender has not sent any weather packets the latest 10 day(s).

<< 14 15 16 17 18 19 20 >>
Time Temp. Humidity Pressure Rain* Wind** Luminosity Snow
1788363890 26.67° C 39% 1020.8 hPa - - - -
1788362989 27.22° C 38% 1020.8 hPa - - - -
1788362088 26.67° C 40% 1020.9 hPa - - - -
1788361188 26.67° C 40% 1020.9 hPa - - - -
1788360293 26.67° C 39% 1021.1 hPa - - - -
1788359393 27.22° C 38% 1021 hPa - - - -
1788358492 26.11° C 40% 1020.9 hPa - - - -
1788357592 26.67° C 39% 1020.9 hPa - - - -
1788356692 26.67° C 38% 1020.9 hPa - - - -
1788355792 26.67° C 38% 1021 hPa - - - -
1788354892 26.11° C 39% 1021.2 hPa - - - -
1788353992 26.11° C 39% 1021.2 hPa - - - -
1788353091 26.67° C 38% 1021.3 hPa - - - -
1788352191 26.11° C 39% 1021.4 hPa - - - -
1788351291 25.56° C 39% 1021.5 hPa - - - -
1788350391 26.11° C 38% 1021.5 hPa - - - -
1788349491 26.11° C 37% 1021.5 hPa - - - -
1788348590 25.56° C 39% 1021.7 hPa - - - -
1788347690 25° C 39% 1021.8 hPa - - - -
1788346790 25.56° C 38% 1021.9 hPa - - - -
1788345890 26.11° C 37% 1022 hPa - - - -
1788344990 25° C 39% 1022.1 hPa - - - -
1788344090 25° C 39% 1022.3 hPa - - - -
1788343189 25° C 38% 1022.4 hPa - - - -
1788342289 25.56° C 37% 1022.5 hPa - - - -

* Rain since midnight (hover to see other rain measurements)
** Current wind speed in m/s (hover to see current wind gust speed)